Location: North Bay Shore
(40.7362°N, 73.2626°W)
Time: 09:48:04
(UTC+00:00)

Cosmos 968 Rocket - Pass Details

Date: 29 October 2020
Orbit: 741 x 770 km, 74.0° (Epoch: 23 November)

Event Time Altitude Azimuth Distance (km) Brightness Sun altitude
Rises 23:18:21 0° 339° (NNW) 3,232 7.0 -16.8°
Reaches altitude 10° 23:20:44 10° 337° (NNW) 2,298 6.2 -17.3°
Maximum altitude 23:25:56 75° 253° (WSW) 783 3.6 -18.2°
Drops below altitude 10° 23:31:03 10° 169° (SSE) 2,262 5.8 -19.2°
Sets 23:33:23 0° 167° (SSE) 3,178 6.6 -19.7°
